Location: Estenc
(44.2333°N, 6.7534°E)
Time: 23:21:03
(UTC+00:00)

Daily predictions for brighter satellites

Satellite Brightness Start Highest point End
(mag) Time Altitude Azimuth Time Altitude Azimuth Time Altitude Azimuth
Cosmos 389 Rocket 4.0 16:57:31 10° SSW 17:00:43 39° WNW 17:04:00 10° N
ATLAS 3B R/B 4.1 16:55:46 10° W 17:01:36 32° NW 17:07:41 10° NNE
PAYLOAD B 4.3 16:56:11 10° SSE 17:01:37 61° ENE 17:07:07 10° N
NOAA 6 4.2 16:57:08 10° SSE 17:02:19 84° WSW 17:07:33 10° NNW
Cosmos 1727 Rocket 4.4 16:56:15 10° NNW 17:02:26 70° W 17:08:32 10° S
SMAP 3.2 17:00:04 10° S 17:04:43 81° WSW 17:09:25 10° NNW
Cosmos 1626 Rocket 4.4 17:01:37 10° NNE 17:05:23 28° ENE 17:09:09 10° SE
Cosmos 1408 4.5 17:06:02 10° NE 17:07:11 11° ENE 17:08:19 10° E
CZ-2D R/B 3.3 17:06:09 10° SSE 17:09:54 55° ENE 17:13:43 10° N
NOSS 3-1 (A) 3.8 17:05:16 10° S 17:09:56 35° ESE 17:15:15 10° NE
AQUARIUS 4.3 17:05:47 10° SSE 17:10:17 83° WSW 17:14:48 10° NNW
H-2A R/B 2.3 17:05:11 10° SE 17:10:25 53° ENE 17:15:43 10° N
Meteor 2-10 Rocket 4.5 17:06:03 10° SE 17:10:39 27° E 17:15:07 10° NNE
Cosmos 1844 Rocket 3.6 17:06:43 10° N 17:11:27 27° NE 17:16:10 10° ESE
Cosmos 371 Rocket 3.3 17:07:14 10° S 17:12:03 67° ESE 17:16:55 10° NNE
X-37B 1.0 17:10:21 10° W 17:13:54 75° SSW 17:17:25 10° ESE
Cosmos 1908 4.2 17:11:06 10° SSW 17:14:52 51° W 17:18:39 10° N
Cosmos 1328 3.8 17:13:50 10° N 17:17:51 65° E 17:21:52 10° SSE
USA 267 3.3 17:13:22 10° ESE 17:19:53 77° NE 17:26:26 10° NW
EXPRESS MD2 4.2 17:23:14 10° SSE 17:24:05 12° SE 17:24:31 11° SE
Cosmos 1269 Rocket 4.4 17:19:05 10° NNW 17:24:22 69° WSW 17:29:35 10° S
Tiangong 1.7 17:22:22 10° W 17:25:29 50° S 17:28:04 14° ESE
MOS 1-B Rocket 4.2 17:20:43 10° NNE 17:26:52 48° E 17:32:22 10° S
SKYMED 2 3.7 17:22:40 10° NNE 17:26:55 51° E 17:31:08 10° S
Cosmos 1455 Rocket 3.5 17:23:38 10° SSW 17:28:02 68° W 17:32:30 10° N
Cosmos 1605 Rocket 4.3 17:22:54 10° SSE 17:28:50 47° E 17:34:53 10° NNE
YAOGAN 1 3.6 17:25:59 10° ESE 17:29:31 25° ENE 17:33:03 10° NNE
BREEZE-M R/B 2.9 17:25:58 10° WNW 17:29:31 51° NNE 17:32:42 15° E
NOSS 2-3 (D) 3.4 17:25:51 10° SSW 17:29:50 81° ESE 17:34:25 10° NE
Cosmos 1953 3.8 17:26:35 10° SSW 17:30:25 40° WNW 17:34:17 10° N
H-2A R/B 3.5 17:30:42 16° E 17:31:16 16° E 17:33:52 10° SE
Landsat 5 3.8 17:27:19 10° NNE 17:31:41 52° E 17:36:05 10° S
NOSS 3-1 (C) 3.2 17:28:12 10° SW 17:33:26 88° NW 17:39:36 10° NE
Cosmos 1455 4.3 17:31:26 10° ESE 17:31:46 11° ESE 17:31:46 11° ESE
ATLAS 5 CENTAUR R/B 3.5 17:31:23 10° W 17:34:35 23° NW 17:38:08 10° NNE
Cosmos 44 3.8 17:30:25 10° S 17:35:37 49° ESE 17:40:46 10° NE
Cosmos 1535 Rocket 4.5 17:29:51 10° S 17:36:05 73° E 17:42:27 10° NNE
Cosmos 2278 Rocket 4.2 17:37:09 10° NNE 17:37:29 10° NE 17:37:48 10° NE
Lacrosse 4 Rocket 1.4 17:34:02 10° NNW 17:38:21 67° ENE 17:42:44 10° SE
Cosmos 1300 2.8 17:37:40 10° S 17:41:28 79° W 17:45:17 10° N
NOSS 2-3 (C) 3.7 17:38:22 10° SW 17:42:22 74° NW 17:47:03 10° NE
Cosmos 1544 Rocket 3.7 17:38:07 10° S 17:42:35 83° W 17:47:05 10° N
Cosmos 1825 4.0 17:40:23 10° NNE 17:41:33 14° NE 17:41:33 14° NE
NOSS 8 (H) 4.5 17:40:42 10° SW 17:44:04 66° NW 17:46:30 14° NNE
SL-16 R/B 2.3 17:38:38 10° SSW 17:44:18 81° WNW 17:50:01 10° NNE
Cosmos 2251 Rocket 3.6 17:39:44 10° NNW 17:44:52 51° ENE 17:49:56 10° SE
SWARM A 4.5 17:43:04 10° SSE 17:46:13 44° E 17:49:23 10° NNE
Cosmos 2322 Rocket 2.2 17:50:09 10° SSW 17:55:46 85° WNW 18:01:26 10° NNE
Cosmos 1934 Rocket 4.3 17:50:29 10° SSW 17:56:32 70° W 18:02:35 10° N
CZ-4C R/B 2.7 17:56:28 10° NNE 17:59:49 87° ESE 18:03:02 10° SSW
Cosmos 2219 Rocket 3.0 17:56:39 10° SSE 18:01:10 26° ESE 18:01:22 26° E
Okean O Rocket 1.9 17:57:06 10° S 18:01:25 69° WSW 18:05:46 10° NNW
Cosmos 304 Rocket 4.0 17:57:13 10° SSW 18:02:00 73° WNW 18:06:49 10° NNE
Iridium 4 Rocket 3.9 17:57:38 10° N 18:02:20 63° W 18:07:28 10° S
IRAS Rocket 4.2 17:57:27 10° NNE 18:02:56 59° ESE 18:08:20 10° S
Cosmos 614 Rocket 3.8 17:59:07 10° NNW 18:04:14 79° ENE 18:09:20 10° SSE
Cosmos 2360 Rocket 2.1 17:59:05 10° SSW 18:04:40 70° ESE 18:10:20 10° NNE
CZ-4 R/B 1.4 18:01:34 10° SSE 18:05:31 56° ENE 18:09:34 10° N
Meteor 1-4 Rocket 2.7 18:02:20 10° SSW 18:05:47 69° W 18:09:14 10° N
NOSS 2-2 (E) 4.4 18:02:59 10° S 18:04:47 22° SSE 18:04:47 22° SSE
Cosmos 1844 3.8 18:01:32 10° NNW 18:07:16 59° ENE 18:11:17 19° SE
ARGOS 3.2 18:02:47 10° SSE 18:08:11 82° WSW 18:13:39 10° NNW
FALCON 9 DEB 3.2 18:05:34 10° SW 18:08:09 47° SSE 18:08:09 47° SSE
Cosmos 1602 Rocket 3.5 18:04:36 10° N 18:08:57 86° W 18:13:16 10° S
Cosmos 1932 4.4 18:03:19 10° NNW 18:09:33 68° NE 18:13:52 21° SE
COSMO-SKYMED 1 3.5 18:10:47 10° N 18:14:58 48° WNW 18:19:09 10° SW
Cosmos 2333 Rocket 2.5 18:09:57 10° S 18:15:14 42° ESE 18:17:13 31° ENE
CZ-4B R/B 4.5 18:14:18 10° S 18:19:41 44° W 18:25:06 10° NNW
Spot 2 4.2 18:19:14 10° S 18:23:23 71° WSW 18:27:47 10° NNW
IRS-1C Rocket 4.0 18:19:34 17° SSE 18:23:38 64° ENE 18:28:51 10° N
SL-8 R/B 4.1 18:19:32 10° WNW 18:24:13 51° N 18:25:25 40° NE
In-Cosmos 22 Rocket 4.1 18:18:54 10° NNW 18:24:14 81° W 18:29:33 10° S
Feng Yun 1-1 Rocket 4.4 18:20:36 10° S 18:26:11 75° WSW 18:31:57 10° NNW
Cosmos 1190 Rocket 4.4 18:21:25 10° N 18:26:13 40° ENE 18:26:13 40° ENE
Okean-O 2.7 18:26:34 53° ENE 18:26:34 53° ENE 18:30:53 10° N
USA 215 4.2 18:24:02 16° NE 18:28:53 40° NNW 18:34:52 10° W
CZ-2C R/B 3.5 18:23:53 10° N 18:29:19 53° WNW 18:34:37 10° SW
CSL-04 Debris 4.2 18:28:30 42° ESE 18:29:52 53° ENE 18:35:09 10° N
Cosmos 1825 Rocket 3.4 18:26:56 10° N 18:31:15 67° E 18:31:17 67° E
H-2A R/B 3.0 18:27:20 10° S 18:31:34 60° WSW 18:35:40 10° NNW
FALCON 9 DEB 4.4 18:32:35 10° WSW 18:34:22 33° WSW 18:34:22 33° WSW
Cosmos 2228 3.0 18:31:20 10° S 18:35:44 87° WNW 18:40:10 10° N
Cosmos 1892 3.3 18:32:06 10° NNW 18:35:47 54° W 18:39:26 10° S
Cosmos 2322 3.7 18:31:36 10° S 18:37:10 56° ESE 18:38:00 51° ENE
USA 229 DEB 3.9 18:31:34 10° SW 18:37:54 64° NW 18:43:37 15° NNE
USA 229 3.9 18:31:40 10° SW 18:37:59 65° NW 18:43:41 15° NNE
Cosmos 1758 Rocket 3.9 18:34:19 10° NNW 18:38:36 63° W 18:42:54 10° S
CSL-04 Rocket 3.7 18:39:01 53° ESE 18:39:55 60° ENE 18:45:24 10° N
Cosmos 2344 4.4 18:31:50 10° NW 18:41:14 82° SW 18:54:30 10° SSE
Cosmos 1408 3.4 18:38:57 10° NNW 18:42:25 47° W 18:43:38 32° SW
Cosmos 1459 Rocket 3.8 18:40:14 10° S 18:46:22 66° E 18:52:25 10° NNE
X-37B 3.0 18:48:43 10° W 18:51:10 21° SW 18:51:10 21° SW
Cosmos 2100 Rocket 3.9 18:45:53 10° S 18:52:11 80° E 18:58:35 10° N
Cosmos 1844 Rocket 3.4 18:50:14 10° NW 18:55:37 50° WSW 18:59:39 17° S
NOSS 3-1 (A) 4.3 18:55:28 10° WSW 19:00:36 43° NW 19:04:32 20° NNE
Tiangong 4.0 18:59:18 10° WSW 19:00:17 16° WSW 19:00:17 16° WSW
Cosmos 2173 Rocket 3.9 18:56:30 10° S 19:02:41 89° ESE 19:09:01 10° N
Cosmos 1802 Rocket 4.5 18:57:51 10° S 19:05:57 44° NNE 19:10:05 10° NNE
YAOGAN 1 4.3 19:01:36 10° SSW 19:05:27 32° W 19:09:22 10° NNW
H-2A R/B 3.0 19:07:49 45° W 19:07:49 45° W 19:11:29 10° SW
Cosmos 1455 4.4 19:05:23 10° SW 19:06:46 20° SW 19:06:46 20° SW
Milstar 3 Cent rocket 4.4 19:03:22 10° SSW 19:09:21 27° SSE 19:09:21 27° SSE
CENTAUR R/B 4.0 19:05:48 10° NNW 19:12:41 32° NNE 19:12:59 32° NE
Orbus 7S? 4.4 19:06:43 10° NW 19:12:53 52° WSW 19:12:53 52° WSW
Lacrosse 4 Rocket 4.5 19:14:22 10° WNW 19:16:29 13° WSW 19:18:37 10° SW
COSMOS 2428 3.9 19:14:05 10° SSW 19:16:52 31° SSW 19:16:52 31° SSW
Cosmos 1140 Rocket 4.1 19:16:15 10° NNW 19:21:15 53° WSW 19:21:15 53° WSW
Cosmos 2278 Rocket 3.6 19:17:38 10° NNW 19:20:29 28° N 19:20:29 28° N
Cosmos 407 Rocket 4.3 19:18:15 10° NNW 19:23:23 49° WSW 19:23:45 48° WSW
CZ-4 R/B 4.5 19:39:03 10° WSW 19:40:53 13° W 19:42:43 10° WNW
Cosmos 2219 Rocket 3.3 19:39:24 10° SW 19:43:11 38° WSW 19:43:11 38° WSW
Cosmos 2360 Rocket 4.4 19:44:55 10° W 19:49:15 22° NW 19:53:15 11° N
Cosmos 2333 Rocket 3.7 19:54:31 10° WSW 19:59:19 33° WNW 19:59:19 33° WNW
CENTAUR R/B 4.4 20:56:16 10° NW 21:00:09 33° NW 21:00:09 33° NW
